カタログに戻る

TIANZHOU 10

運用中科学VLEO
NORAD 69049·PAYLOAD·🇨🇳 China

打ち上げ May 11, 2026 から Wenchang Space Launch Site

Loading…

次のパス (今後24時間)

TLE

最新Source: Space-Track

元期: Sep 14, 2026, 14:01 UTC

1 69049U 26102A   26257.58463244  .00018605  00000-0  22780-3 0  9999
2 69049  41.4676 139.2408 0002663 278.8217  81.2320 15.59928303307941

AllMySatでTIANZHOU 10をリアルタイム追跡

Download on the App Store